Mazatlan Airport, Mexico

8:28 AM MST on December 15, 2017 (GMT -0700)
Gen Rafael Buelna International

Weather History for MMMZ - March, 2013

Change the Weather History Date:

Wednesday, March 6, 2013

  Actual Average Record
Temperature  
Mean Temperature 63 °F -  
Max Temperature 80 °F 79 °F 87 °F (1999)
Min Temperature 46 °F 51 °F 44 °F (2008)
Degree Days  
Heating Degree Days 2    
Growing Degree Days 13 (Base 50)    
Moisture  
Dew Point 50 °F    
Average Humidity 65    
Maximum Humidity 88    
Minimum Humidity 30    
Precipitation  
Precipitation 0.00 in - - ()
Sea Level Pressure  
Sea Level Pressure 29.93 in    
Wind  
Wind Speed 7 mph ()    
Max Wind Speed 13 mph    
Max Gust Speed -    
Visibility 10.9 miles    
Events      
Averages and records for this station are not official NWS values.
T = Trace of Precipitation, MM = Missing Value Source: Averaged Metar Reports

Daily Weather History Graph

Daily Weather History Graph

Search for Another Location

Airport or City:

Trip Planner

Search our weather history database for the weather conditions in past years. The results will help you decide how hot, cold, wet, or windy it might be!

Date:

Astronomy

Mar. 06, 2013 Rise Set
Actual Time 6:22 AM MST 6:10 PM MST
Civil Twilight 5:59 AM MST 6:33 PM MST
Nautical Twilight 5:33 AM MST 6:59 PM MST
Astronomical Twilight 5:07 AM MST 7:25 PM MST
Moon 2:05 AM MST (3/6) 1:22 PM MST (3/6)
Length of Visible Light 12h 33m
Length of Day
11h 48m
Waning Crescent, 29% of the Moon is Illuminated
Mar 6
Waning Crescent
Mar 11
New
Mar 19
First Quarter
Mar 27
Full
Apr 2
Last Quarter

Hourly Weather History & Observations

Time (MST) Temp. Windchill Dew Point Humidity Pressure Visibility Wind Dir Wind Speed Gust Speed Precip Events Conditions
12:40 AM 53.6 °F - 42.8 °F 67% 29.93 in 10.0 mi NW 8.1 mph - N/A   Scattered Clouds
1:42 AM 51.8 °F - 42.8 °F 71% 29.92 in 8.0 mi NE 9.2 mph - N/A   Clear
2:40 AM 50.0 °F - 42.8 °F 76% 29.92 in 8.0 mi NE 8.1 mph - N/A   Clear
3:40 AM 48.2 °F - 41.0 °F 76% 29.92 in 10.0 mi Calm Calm - N/A   Clear
4:43 AM 48.2 °F - 41.0 °F 76% 29.92 in 8.0 mi NNE 8.1 mph - N/A   Clear
5:40 AM 46.4 °F 41.9 °F 42.8 °F 87% 29.95 in 8.0 mi NNE 9.2 mph - N/A   Clear
6:40 AM 50.0 °F - 41.0 °F 71% 29.98 in 10.0 mi NNE 9.2 mph - N/A   Scattered Clouds
7:41 AM 55.4 °F - 44.6 °F 67% 29.99 in 10.0 mi North 9.2 mph - N/A   Mostly Cloudy
8:43 AM 64.4 °F - 51.8 °F 64% 29.99 in 12.0 mi North 6.9 mph - N/A   Mostly Cloudy
9:40 AM 71.6 °F - 53.6 °F 53% 29.99 in 12.0 mi ESE 6.9 mph - N/A   Mostly Cloudy
10:42 AM 78.8 °F - 51.8 °F 39% 29.99 in 12.0 mi SE 9.2 mph - N/A   Mostly Cloudy
11:43 AM 77.0 °F - 55.4 °F 47% 29.98 in 14.0 mi SSE 10.4 mph - N/A   Overcast
12:42 PM 80.6 °F - 46.4 °F 30% 29.95 in 14.0 mi SE 8.1 mph - N/A   Mostly Cloudy
1:42 PM 77.0 °F - 55.4 °F 47% 29.93 in 14.0 mi South 9.2 mph - N/A   Overcast
2:43 PM 73.4 °F - 53.6 °F 50% 29.91 in 14.0 mi South 9.2 mph - N/A   Overcast
3:45 PM 71.6 °F - 57.2 °F 60% 29.98 in 14.0 mi WSW 10.4 mph - N/A   Overcast
4:43 PM 71.6 °F - 57.2 °F 60% 29.87 in 12.0 mi WSW 12.7 mph - N/A   Overcast
5:49 PM 69.8 °F - 55.4 °F 60% 29.88 in 12.0 mi WSW 8.1 mph - N/A   Overcast
6:42 PM 66.2 °F - 53.6 °F 64% 29.89 in 10.0 mi WSW 9.2 mph - N/A   Overcast
7:40 PM 66.2 °F - 55.4 °F 68% 29.89 in 10.0 mi West 10.4 mph - N/A   Mostly Cloudy
8:40 PM 62.6 °F - 53.6 °F 72% 29.89 in 10.0 mi NNW 5.8 mph - N/A   Mostly Cloudy
9:41 PM 60.8 °F - 53.6 °F 77% 29.90 in 10.0 mi SSE 6.9 mph - N/A   Scattered Clouds
10:40 PM 57.2 °F - 53.6 °F 88% 29.93 in 10.0 mi SSE 5.8 mph - N/A   Scattered Clouds
11:54 PM 55.4 °F - 51.8 °F 88% 29.93 in 10.0 mi ESE 6.9 mph - N/A   Mostly Cloudy